SCP
0 0 0 0 0 0 0 0 0 0 0 0 0 0 0 0 0 0 0 1 1 0 0 0 0 1 1 1 1 1 1 1 1 1 1 1 1 1
0 0 0 0 0 0 0 0 0 0 0 0 0 0 0 0 0 0 0 0 1 0 0 0 0 0 0 0 0 0 1 1 1 1 1 1 1 1
0 0 0 0 0 0 0 0 0 0 0 0 0 0 0 0 0 0 0 0 0 0 0 0 0 0 0 0 0 0 0 0 0 0 0 0 0 0
0 0 0 0 0 0 0 0 0 0 0 0 0 0 0 0 0 0 0 0 0 0 0 0 0 0 0 0 0 0 0 0 0 0 0 0 0 0
0 0 0 0 0 0 0 0 0 0 0 0 0 0 0 0 0 0 0 0 0 0 0 0 0 0 0 0 0 0 0 0 0 0 0 0 0 0
0 0 0 0 0 0 0 0 0 0 0 0 0 0 0 0 0 0 0 0 0 0 0 0 0 0 0 0 0 0 0 0 0 0 0 0 0 0
0 0 0 0 0 0 0 0 0 0 0 0 0 0 0 0 0 0 0 0 0 0 0 0 0 0 0 0 0 0 0 0 0 0 0 0 0 0
0 0 0 0 0 0 0 0 0 0 0 0 0 0 0 0 0 0 0 0 0 0 0 0 0 0 0 0 0 0 0 0 0 0 0 0 0 0
0 0 0 0 0 0 0 0 0 0 0 0 0 0 0 0 0 0 0 0 0 0 0 0 0 0 0 0 0 0 0 0 0 0 0 0 0 0
0 0 0 0 0 0 0 0 0 0 0 0 0 0 0 0 0 0 0 0 0 0 0 0 0 0 0 0 0 0 0 0 0 0 0 0 0 0
0 0 0 0 0 0 0 0 0 0 0 0 0 0 0 0 0 0 0 0 0 0 0 0 0 0 0 0 0 0 0 0 0 0 0 0 0 0
0 0 0 0 0 0 0 0 0 0 0 0 0 0 0 0 0 0 0 0 0 0 0 0 0 0 0 0 0 0 0 0 0 0 0 0 0 0
0 0 0 0 0 0 0 0 0 0 0 0 0 0 0 0 0 0 0 0 0 0 0 0 0 0 0 0 0 0 0 0 0 0 0 0 0 0
0 0 0 0 0 0 0 0 0 0 0 0 0 0 0 0 0 0 0 0 0 0 0 0 0 0 0 0 0 0 0 0 0 0 0 0 0 0
0 0 0 0 0 0 0 0 0 0 0 0 0 0 0 0 0 0 0 0 0 0 0 0 0 0 0 0 0 0 0 0 0 0 0 0 0 0
0 0 0 0 0 0 0 0 0 0 0 0 0 0 0 0 0 0 0 0 0 0 0 0 0 0 0 0 0 0 0 0 0 0 0 0 0 0
0 0 0 0 0 0 0 0 0 0 0 0 0 0 0 0 0 0 0 0 0 0 0 0 0 0 0 0 0 0 0 0 0 0 0 0 0 0
0 0 0 0 0 0 0 0 0 0 0 0 0 0 0 0 0 0 0 0 0 0 0 0 0 0 0 0 0 0 0 0 0 0 0 0 0 0
0 0 0 0 0 0 0 0 0 0 0 0 0 0 0 0 0 0 0 0 0 0 0 0 0 0 0 0 0 0 0 0 0 0 0 0 0 0
0 0 0 0 0 0 0 0 0 0 0 0 0 0 0 0 0 0 0 0 0 0 0 0 0 0 0 0 0 0 0 0 0 0 0 0 0 0
0 0 0 0 0 0 0 0 0 0 0 0 0 0 0 0 0 0 0 0 0 0 0 0 0 0 0 0 0 0 0 0 0 0 0 0 0 0
0 0 0 0 0 0 0 0 0 0 0 0 0 0 0 0 0 0 0 0 0 0 0 0 0 0 0 0 0 0 0 0 0 0 0 0 0 0
0 0 0 0 0 0 0 0 0 0 0 0 0 0 0 0 0 0 0 0 0 0 0 0 0 0 0 0 0 0 0 0 0 0 0 0 0 0
Wind_Speed
6 6 5 4 4 4 4 4 4 4 5 3 2 2 1 1 2 2 2 5 6 6 6 6 6 6 6 6 7 7 7 8 9 9 9 9 10 10
5 6 6 4 4 4 4 4 4 4 5 3 3 3 2 1 1 1 1 4 5 6 7 7 7 7 7 8 8 8 8 8 8 9 8 8 7 7
6 6 7 5 4 4 4 4 4 4 6 4 2 2 1 1 1 2 2 2 3 6 8 9 9 9 9 9 9 10 10 11 11 11 11 11 10 9
7 7 7 5 6 4 4 5 5 5 5 5 3 2 2 2 3 3 3 4 4 7 10 10 11 11 11 11 11 12 12 12 12 12 12 12 11 11
7 8 7 6 6 4 4 5 4 5 4 4 4 2 1 2 3 4 5 4 5 8 10 11 12 12 12 13 13 13 13 13 13 13 13 13 12 12
7 8 8 8 7 6 5 5 4 4 4 4 3 2 2 3 4 5 4 4 5 6 8 9 11 13 13 13 14 14 13 13 13 13 13 13 12 12
6 7 7 9 10 7 5 5 4 4 4 4 4 3 3 5 5 4 6 6 4 4 6 6 6 6 6 9 12 13 13 13 13 12 12 12 12 12
7 7 7 8 10 10 10 8 7 6 6 5 4 5 5 5 5 7 8 7 4 3 5 5 4 5 4 4 8 11 11 11 12 12 11 11 11 10
7 6 6 6 8 6 6 6 6 7 8 6 7 6 6 7 8 8 8 6 5 6 5 5 3 4 3 4 8 9 10 10 10 10 10 10 10 9
7 7 7 6 7 7 5 4 3 3 5 5 5 5 6 6 7 8 9 7 7 4 4 5 3 3 4 3 6 8 8 8 9 9 9 9 9 9
6 7 7 7 10 10 7 6 4 2 3 6 6 7 9 10 9 8 8 9 8 4 2 4 4 3 3 2 3 5 6 6 7 8 8 8 9 8
5 5 8 8 10 12 8 8 6 4 4 5 6 6 7 9 10 8 9 9 8 5 2 4 4 4 4 2 2 2 3 4 5 6 7 8 9 5
4 4 4 7 9 11 9 7 8 7 5 6 5 5 5 6 6 6 6 8 8 4 5 5 4 3 4 4 2 1 2 2 2 2 5 7 8 7
4 3 4 8 8 9 8 8 10 8 5 5 5 5 5 5 5 5 6 5 5 6 8 7 5 5 5 4 3 2 1 1 2 2 2 5 5 6
3 4 4 8 8 6 8 11 10 6 5 6 6 4 4 5 6 5 7 7 7 5 6 6 7 5 5 5 5 3 2 1 2 2 2 3 3 3
3 3 5 6 5 6 7 7 5 5 6 6 5 4 4 5 6 6 7 7 6 4 4 4 7 9 5 5 5 4 3 3 2 2 3 2 1 2
4 3 3 3 4 4 4 4 4 5 5 5 6 6 6 6 5 5 6 6 6 5 4 4 5 6 6 6 6 4 3 2 2 3 3 2 1 2
5 4 4 5 5 6 6 5 4 5 6 6 6 6 7 7 6 5 5 6 7 6 5 4 5 5 5 5 3 5 3 3 2 3 3 3 1 2
4 4 4 5 5 5 6 5 5 5 6 7 7 7 7 6 6 6 5 5 5 5 4 4 5 6 6 3 2 1 5 3 3 2 2 3 3 3
3 4 4 5 5 5 5 5 6 6 6 7 7 6 6 6 6 6 6 6 6 5 4 3 4 6 6 6 4 1 3 5 4 3 2 1 0 1
3 3 3 4 4 4 5 6 6 6 7 7 6 7 6 6 6 6 6 8 6 5 5 4 3 6 5 5 3 0 1 3 6 5 4 3 1 0
3 3 4 4 4 4 5 6 6 6 7 6 6 6 6 6 7 7 6 6 5 5 5 3 3 4 3 4 4 3 2 1 1 4 6 8 6 6
3 3 4 4 3 4 5 6 7 6 6 6 6 6 6 6 5 6 6 6 6 5 5 4 3 2 3 3 4 3 3 3 2 1 3 7 10 10
Wind_Direction
234 234 232 232 225 225 221 214 233 272 281 261 261 269 261 256 238 217 205 193 189 181 180 175 171 173 171 171 174 175 180 187 188 183 181 187 193 200
231 232 235 233 232 227 225 223 216 229 258 254 251 267 271 261 238 186 176 162 165 159 154 148 146 145 142 139 142 144 148 149 148 144 145 148 153 163
238 232 235 229 231 231 227 225 222 217 247 264 254 262 262 220 183 129 126 123 128 135 134 130 126 124 123 124 124 122 121 122 123 122 120 118 120 123
237 231 235 231 231 230 227 230 228 220 227 253 258 241 239 194 167 142 129 117 113 114 115 115 114 113 112 111 110 110 110 111 110 108 107 106 107 108
237 228 228 222 229 230 231 234 232 229 218 223 240 229 212 170 150 129 114 105 106 109 104 104 106 107 107 106 105 104 104 102 101 100 99 98 98 100
243 232 223 215 218 222 230 233 228 224 216 212 215 203 184 164 149 136 124 110 109 108 97 97 99 99 103 107 109 108 106 104 102 100 99 97 95 93
252 241 229 221 216 214 221 222 214 211 208 203 195 185 179 169 160 144 135 119 93 106 109 102 99 94 94 105 110 113 110 108 106 104 103 101 99 98
253 245 236 227 219 216 218 216 207 204 202 194 194 189 184 169 152 148 143 139 125 131 115 106 104 101 98 96 116 117 115 114 113 112 110 108 106 103
246 237 238 228 208 208 213 213 214 214 204 195 189 190 180 171 157 153 155 145 132 148 126 108 105 104 104 113 126 123 121 120 119 119 119 117 114 112
241 232 231 222 209 195 190 188 199 205 204 199 190 186 169 160 158 153 145 117 103 124 125 113 115 101 93 93 125 126 125 125 127 128 126 122 118 115
242 237 230 219 209 189 178 178 184 201 181 168 165 157 149 148 145 137 139 138 135 140 125 110 120 100 85 83 107 127 127 127 128 129 129 129 126 118
241 239 230 220 202 186 179 175 179 186 159 144 143 141 143 145 148 150 149 145 138 134 151 115 132 123 105 83 101 113 114 124 127 127 132 136 135 120
234 227 223 215 199 190 182 179 177 164 154 148 141 137 134 138 143 142 144 146 144 137 155 127 136 127 123 128 123 133 128 122 115 110 124 137 143 136
228 222 206 193 193 185 180 165 154 146 141 139 139 142 141 141 141 137 134 134 133 141 151 140 135 145 127 122 132 126 119 128 125 116 112 117 121 126
212 209 195 185 179 177 176 162 153 146 141 139 142 143 137 136 128 117 108 103 92 103 132 136 132 132 128 132 138 136 132 147 144 134 135 137 140 131
191 178 174 171 173 164 162 160 151 147 144 141 138 128 119 122 128 128 124 118 103 78 59 100 130 131 122 122 128 133 141 152 154 147 138 135 137 150
167 153 157 155 166 160 153 151 141 138 136 134 131 127 126 122 120 120 123 118 115 120 101 65 68 86 106 125 124 129 130 131 146 142 129 130 186 190
166 167 166 170 174 170 159 152 148 148 146 139 135 134 132 129 122 113 115 119 122 124 122 123 114 94 67 36 78 135 130 136 135 129 127 132 187 231
169 168 169 172 172 166 158 151 148 148 143 139 137 137 133 129 128 125 121 118 120 124 128 131 127 122 123 128 338 88 144 141 130 125 144 154 183 218
176 169 171 169 161 158 155 148 142 141 140 140 140 139 137 135 135 135 135 134 133 129 125 126 139 143 150 160 169 204 160 148 146 153 160 132 126 342
173 165 161 155 152 153 147 145 143 145 146 143 145 146 144 140 141 144 143 143 135 136 148 172 182 146 113 99 101 154 252 194 167 162 157 140 138 67
165 167 161 150 148 148 142 139 141 145 146 144 148 150 148 146 148 149 149 150 151 151 156 152 127 120 115 137 164 187 209 231 212 195 190 176 168 187
172 168 159 157 155 148 144 143 144 147 149 150 150 151 149 147 149 151 154 153 149 145 137 137 134 128 139 153 164 180 193 192 184 217 256 238 223 223